| time (UTC) | temp C | wind direction | speed KPH | gust KPH | rain 1hr cm | rain 24hr cm | rain mn cm | humidity % | barometer mb |
| 20260507193658 | 13 | 323 | 14.5 | 19.3 | 0.00 | 0.00 | 0.00 | 100 | |
| 20260507193158 | 13 | 343 | 11.3 | 20.9 | 0.00 | 0.00 | 0.00 | 100 | |
| 20260507192658 | 13 | 348 | 12.9 | 19.3 | 0.00 | 0.00 | 0.00 | 100 | |
| 20260507192158 | 13 | 337 | 8.0 | 17.7 | 0.00 | 0.00 | 0.00 | 100 | |
| 20260507191657 | 13 | 317 | 4.8 | 12.9 | 0.00 | 0.00 | 0.00 | 100 | |
| 20260507191157 | 14 | 284 | 8.0 | 14.5 | 0.00 | 0.00 | 0.00 | 100 | |
| 20260507190657 | 14 | 352 | 8.0 | 14.5 | 0.00 | 0.00 | 0.00 | 100 | |
| 20260507190156 | 14 | 316 | 14.5 | 20.9 | 0.00 | 0.00 | 0.00 | 100 | |
| 20260507185656 | 15 | 330 | 11.3 | 14.5 | 0.00 | 0.00 | 0.00 | 100 | |
| 20260507185156 | 15 | 327 | 11.3 | 17.7 | 0.00 | 0.00 | 0.00 | 100 | |
| 20260507184655 | 14 | 281 | 6.4 | 14.5 | 0.00 | 0.00 | 0.00 | 100 | |
| 20260507184155 | 14 | 284 | 3.2 | 14.5 | 0.00 | 0.00 | 0.00 | 100 | |
| 20260507183655 | 15 | 303 | 8.0 | 12.9 | 0.00 | 0.00 | 0.00 | 100 | |
| 20260507183155 | 13 | 307 | 6.4 | 14.5 | 0.00 | 0.00 | 0.00 | 100 | |
| 20260507182654 | 14 | 302 | 11.3 | 11.3 | 0.00 | 0.00 | 0.00 | 100 | |
| 20260507182154 | 13 | 358 | 3.2 | 11.3 | 0.00 | 0.00 | 0.00 | 100 | |
| 20260507181654 | 14 | 312 | 9.7 | 9.7 | 0.00 | 0.00 | 0.00 | 100 | |
| 20260507181153 | 14 | 348 | 4.8 | 9.7 | 0.00 | 0.00 | 0.00 | 100 | |
| 20260507180653 | 14 | 326 | 6.4 | 11.3 | 0.00 | 0.00 | 0.00 | 100 | |
| 20260507180153 | 14 | 324 | 4.8 | 12.9 | 0.00 | 0.00 | 0.00 | 100 | |
| 20260507175653 | 14 | 337 | 6.4 | 9.7 | 0.00 | 0.00 | 0.00 | 100 | |
| 20260507175152 | 14 | 14 | 3.2 | 11.3 | 0.00 | 0.00 | 0.00 | 100 | |
| 20260507174652 | 12 | 355 | 3.2 | 12.9 | 0.00 | 0.00 | 0.00 | 100 | |
| 20260507174152 | 12 | 357 | 6.4 | 16.1 | 0.00 | 0.00 | 0.00 | 100 | |
| 20260507173651 | 13 | 9 | 12.9 | 19.3 | 0.00 | 0.00 | 0.00 | 100 | |
| 20260507173151 | 14 | 358 | 9.7 | 9.7 | 0.00 | 0.00 | 0.00 | 100 | |
| 20260507172651 | 14 | 358 | 8.0 | 12.9 | 0.00 | 0.00 | 0.00 | 100 | |
| 20260507172150 | 14 | 322 | 9.7 | 20.9 | 0.00 | 0.00 | 0.00 | 100 | |
| 20260507171650 | 15 | 309 | 11.3 | 14.5 | 0.00 | 0.00 | 0.00 | 100 | |
| 20260507171150 | 14 | 316 | 9.7 | 17.7 | 0.00 | 0.00 | 0.00 | 100 | |
| 20260507170650 | 15 | 345 | 6.4 | 14.5 | 0.00 | 0.00 | 0.00 | 100 | |
| 20260507170149 | 16 | 285 | 8.0 | 14.5 | 0.00 | 0.00 | 0.00 | 100 | |
| 20260507165649 | 16 | 307 | 11.3 | 11.3 | 0.00 | 0.00 | 0.00 | 100 | |
| 20260507165149 | 16 | 302 | 9.7 | 19.3 | 0.00 | 0.00 | 0.00 | 100 | |
| 20260507164648 | 16 | 334 | 6.4 | 14.5 | 0.00 | 0.00 | 0.00 | 100 | |
| 20260507164148 | 17 | 319 | 4.8 | 12.9 | 0.00 | 0.00 | 0.00 | 100 | |
| 20260507163648 | 16 | 338 | 8.0 | 11.3 | 0.00 | 0.00 | 0.00 | 100 | |
| 20260507163148 | 17 | 307 | 6.4 | 12.9 | 0.00 | 0.00 | 0.00 | 100 | |
| 20260507162647 | 16 | 306 | 11.3 | 14.5 | 0.00 | 0.00 | 0.00 | 100 | |
| 20260507162147 | 16 | 313 | 4.8 | 9.7 | 0.00 | 0.00 | 0.00 | 100 | |
| 20260507161647 | 16 | 354 | 3.2 | 11.3 | 0.00 | 0.00 | 0.00 | 100 | |
| 20260507161146 | 15 | 333 | 6.4 | 9.7 | 0.00 | 0.00 | 0.00 | 100 | |
| 20260507160646 | 15 | 22 | 3.2 | 14.5 | 0.00 | 0.00 | 0.00 | 100 | |
| 20260507160146 | 15 | 344 | 9.7 | 16.1 | 0.00 | 0.00 | 0.00 | 100 | |
| 20260507155645 | 15 | 19 | 6.4 | 12.9 | 0.00 | 0.00 | 0.00 | 100 | |
| 20260507155145 | 15 | 9 | 4.8 | 16.1 | 0.00 | 0.00 | 0.00 | 100 | |
| 20260507154645 | 15 | 322 | 11.3 | 14.5 | 0.00 | 0.00 | 0.00 | 100 | |
| 20260507154145 | 17 | 337 | 8.0 | 14.5 | 0.00 | 0.00 | 0.00 | 100 | |
| 20260507153644 | 17 | 338 | 8.0 | 14.5 | 0.00 | 0.00 | 0.00 | 100 | |
| 20260507153144 | 17 | 5 | 11.3 | 12.9 | 0.00 | 0.00 | 0.00 | 100 | |
| 20260507152644 | 18 | 341 | 3.2 | 11.3 | 0.00 | 0.00 | 0.00 | 100 | |
| 20260507152143 | 20 | 358 | 4.8 | 11.3 | 0.00 | 0.00 | 0.00 | 100 | |
| 20260507151643 | 21 | 327 | 1.6 | 6.4 | 0.00 | 0.00 | 0.00 | 100 | |
| 20260507151143 | 21 | 317 | 3.2 | 4.8 | 0.00 | 0.00 | 0.00 | 100 | |
| 20260507150643 | 21 | 18 | 0.0 | 0.0 | 0.00 | 0.00 | 0.00 | 100 | |
| 20260507150142 | 21 | 18 | 0.0 | 3.2 | 0.00 | 0.00 | 0.00 | 100 | |
| 20260507145642 | 22 | 23 | 0.0 | 0.0 | 0.00 | 0.00 | 0.00 | 100 | |
| 20260507145142 | 22 | 23 | 0.0 | 0.0 | 0.00 | 0.00 | 0.00 | 100 | |
| 20260507144641 | 22 | 23 | 0.0 | 3.2 | 0.00 | 0.00 | 0.00 | 100 | |
| 20260507144141 | 22 | 25 | 3.2 | 4.8 | 0.00 | 0.00 | 0.00 | 100 | |
| 20260507143641 | 22 | 8 | 3.2 | 4.8 | 0.00 | 0.00 | 0.00 | 100 | |
| 20260507143141 | 22 | 5 | 1.6 | 4.8 | 0.00 | 0.00 | 0.00 | 100 | |
| 20260507142640 | 22 | 315 | 0.0 | 8.0 | 0.00 | 0.00 | 0.00 | 100 | |
| 20260507142140 | 22 | 243 | 1.6 | 8.0 | 0.00 | 0.00 | 0.00 | 100 | |
| 20260507141640 | 22 | 291 | 1.6 | 6.4 | 0.00 | 0.00 | 0.00 | 100 | |
| 20260507141139 | 23 | 293 | 4.8 | 6.4 | 0.00 | 0.00 | 0.00 | 100 | |
| 20260507140639 | 23 | 334 | 0.0 | 4.8 | 0.00 | 0.00 | 0.00 | 100 | |
| 20260507140139 | 23 | 338 | 4.8 | 6.4 | 0.00 | 0.00 | 0.00 | 100 | |
| 20260507135639 | 23 | 5 | 3.2 | 6.4 | 0.00 | 0.00 | 0.00 | 100 | |
| 20260507135138 | 25 | 358 | 3.2 | 8.0 | 0.00 | 0.00 | 0.00 | 100 | |
| 20260507134638 | 23 | 337 | 3.2 | 9.7 | 0.00 | 0.00 | 0.00 | 100 | |
| 20260507134138 | 23 | 28 | 3.2 | 8.0 | 0.00 | 0.00 | 0.00 | 100 | |
| 20260507133637 | 23 | 285 | 8.0 | 8.0 | 0.00 | 0.00 | 0.00 | 100 | |
| 20260507133137 | 23 | 333 | 4.8 | 9.7 | 0.00 | 0.00 | 0.00 | 100 | |
| 20260507132637 | 22 | 305 | 8.0 | 11.3 | 0.00 | 0.00 | 0.00 | 100 | |
| 20260507132136 | 21 | 305 | 8.0 | 9.7 | 0.00 | 0.00 | 0.00 | 100 | |
| 20260507131636 | 21 | 322 | 6.4 | 11.3 | 0.00 | 0.00 | 0.00 | 100 | |
| 20260507131136 | 21 | 300 | 8.0 | 16.1 | 0.00 | 0.00 | 0.00 | 100 | |
| 20260507130636 | 21 | 313 | 9.7 | 14.5 | 0.00 | 0.00 | 0.00 | 100 | |
| 20260507130135 | 22 | 323 | 6.4 | 16.1 | 0.00 | 0.00 | 0.00 | 100 | |
| 20260507125635 | 22 | 345 | 6.4 | 14.5 | 0.00 | 0.00 | 0.00 | 100 | |
| 20260507125135 | 22 | 320 | 11.3 | 14.5 | 0.00 | 0.00 | 0.00 | 100 | |
| 20260507124634 | 22 | 352 | 4.8 | 14.5 | 0.00 | 0.00 | 0.00 | 100 | |
| 20260507124134 | 22 | 333 | 4.8 | 11.3 | 0.00 | 0.00 | 0.00 | 100 | |
| 20260507123634 | 23 | 4 | 6.4 | 9.7 | 0.00 | 0.00 | 0.00 | 100 | |
| 20260507123134 | 24 | 343 | 6.4 | 8.0 | 0.00 | 0.00 | 0.00 | 100 | |
| 20260507122633 | 25 | 326 | 4.8 | 9.7 | 0.00 | 0.00 | 0.00 | 100 | |
| 20260507122133 | 26 | 343 | 1.6 | 9.7 | 0.00 | 0.00 | 0.00 | 100 | |
| 20260507121633 | 23 | 47 | 0.0 | 6.4 | 0.00 | 0.00 | 0.00 | 100 | |
| 20260507121132 | 24 | 22 | 4.8 | 8.0 | 0.00 | 0.00 | 0.00 | 100 | |
| 20260507120632 | 25 | 16 | 0.0 | 6.4 | 0.00 | 0.00 | 0.00 | 100 | |
| 20260507120132 | 23 | 21 | 3.2 | 8.0 | 0.00 | 0.00 | 0.00 | 100 | |
| 20260507115632 | 24 | 33 | 1.6 | 9.7 | 0.00 | 0.00 | 0.00 | 100 | |
| 20260507115131 | 24 | 14 | 0.0 | 3.2 | 0.00 | 0.00 | 0.00 | 100 | |
| 20260507114631 | 23 | 40 | 1.6 | 6.4 | 0.00 | 0.00 | 0.00 | 100 | |
| 20260507114131 | 25 | 192 | 0.0 | 9.7 | 0.00 | 0.00 | 0.00 | 100 | |
| 20260507113630 | 23 | 25 | 0.0 | 12.9 | 0.00 | 0.00 | 0.00 | 100 | |
| 20260507113130 | 23 | 33 | 3.2 | 9.7 | 0.00 | 0.00 | 0.00 | 100 | |
| 20260507112630 | 24 | 23 | 8.0 | 8.0 | 0.00 | 0.00 | 0.00 | 100 | |
| 20260507112129 | 22 | 77 | 0.0 | 8.0 | 0.00 | 0.00 | 0.00 | 100 | |
| 20260507111629 | 21 | 116 | 0.0 | 8.0 | 0.00 | 0.00 | 0.00 | 100 | |
| 20260507111129 | 24 | 7 | 0.0 | 0.0 | 0.00 | 0.00 | 0.00 | 100 | |
| 20260507110629 | 23 | 43 | 0.0 | 0.0 | 0.00 | 0.00 | 0.00 | 100 | |
| 20260507110128 | 23 | 43 | 0.0 | 8.0 | 0.00 | 0.00 | 0.00 | 100 | |
| 20260507105628 | 23 | 53 | 4.8 | 9.7 | 0.00 | 0.00 | 0.00 | 100 | |
| 20260507105128 | 22 | 174 | 0.0 | 9.7 | 0.00 | 0.00 | 0.00 | 100 | |
| 20260507104627 | 21 | 122 | 8.0 | 8.0 | 0.00 | 0.00 | 0.00 | 100 | |
| 20260507104127 | 23 | 352 | 0.0 | 6.4 | 0.00 | 0.00 | 0.00 | 100 | |
| 20260507103627 | 24 | 15 | 3.2 | 8.0 | 0.00 | 0.00 | 0.00 | 100 | |
| 20260507103127 | 23 | 9 | 1.6 | 8.0 | 0.00 | 0.00 | 0.00 | 100 | |
| 20260507102626 | 22 | 36 | 3.2 | 8.0 | 0.00 | 0.00 | 0.00 | 100 | |
| 20260507102126 | 22 | 334 | 0.0 | 8.0 | 0.00 | 0.00 | 0.00 | 100 | |
| 20260507101626 | 21 | 7 | 4.8 | 9.7 | 0.00 | 0.00 | 0.00 | 100 | |
| 20260507101125 | 21 | 279 | 0.0 | 9.7 | 0.00 | 0.00 | 0.00 | 100 | |
| 20260507100625 | 22 | 23 | 0.0 | 14.5 | 0.00 | 0.00 | 0.00 | 100 | |
| 20260507100125 | 21 | 32 | 9.7 | 14.5 | 0.00 | 0.00 | 0.00 | 100 | |
| 20260507095625 | 22 | 36 | 0.0 | 0.0 | 0.00 | 0.00 | 0.00 | 100 | |
| 20260507095124 | 22 | 36 | 0.0 | 8.0 | 0.00 | 0.00 | 0.00 | 100 | |
| 20260507094624 | 21 | 29 | 6.4 | 6.4 | 0.00 | 0.00 | 0.00 | 100 | |
| 20260507094124 | 21 | 119 | 0.0 | 9.7 | 0.00 | 0.00 | 0.00 | 100 | |
| 20260507093623 | 21 | 295 | 0.0 | 9.7 | 0.00 | 0.00 | 0.00 | 100 | |
| 20260507093123 | 22 | 345 | 0.0 | 8.0 | 0.00 | 0.00 | 0.00 | 100 | |
| 20260507092623 | 23 | 1 | 0.0 | 3.2 | 0.00 | 0.00 | 0.00 | 100 | |
| 20260507092122 | 23 | 11 | 0.0 | 8.0 | 0.00 | 0.00 | 0.00 | 100 | |
| 20260507091622 | 22 | 351 | 4.8 | 9.7 | 0.00 | 0.00 | 0.00 | 100 | |
| 20260507091122 | 22 | 307 | 3.2 | 3.2 | 0.00 | 0.00 | 0.00 | 100 | |
| 20260507090622 | 23 | 23 | 3.2 | 3.2 | 0.00 | 0.00 | 0.00 | 100 | |
| 20260507090121 | 21 | 78 | 0.0 | 1.6 | 0.00 | 0.00 | 0.00 | 100 | |
| 20260507085621 | 22 | 32 | 0.0 | 0.0 | 0.00 | 0.00 | 0.00 | 100 | |
| 20260507085121 | 21 | 32 | 0.0 | 3.2 | 0.00 | 0.00 | 0.00 | 100 | |
| 20260507084620 | 21 | 74 | 3.2 | 3.2 | 0.00 | 0.00 | 0.00 | 100 | |
| 20260507084120 | 20 | 115 | 0.0 | 3.2 | 0.00 | 0.00 | 0.00 | 100 | |
| 20260507083620 | 20 | 102 | 0.0 | 0.0 | 0.00 | 0.00 | 0.00 | 100 | |
| 20260507083120 | 21 | 102 | 0.0 | 0.0 | 0.00 | 0.00 | 0.00 | 100 | |
| 20260507082619 | 20 | 102 | 0.0 | 0.0 | 0.00 | 0.00 | 0.00 | 100 | |
| 20260507082119 | 21 | 326 | 0.0 | 1.6 | 0.00 | 0.00 | 0.00 | 100 | |
| 20260507081619 | 21 | 11 | 0.0 | 4.8 | 0.00 | 0.00 | 0.00 | 100 | |
| 20260507081118 | 21 | 90 | 0.0 | 1.6 | 0.00 | 0.00 | 0.00 | 100 | |
| 20260507080618 | 21 | 11 | 0.0 | 0.0 | 0.00 | 0.00 | 0.00 | 100 | |
| 20260507080118 | 21 | 11 | 0.0 | 0.0 | 0.00 | 0.00 | 0.00 | 100 | |
| 20260507075617 | 21 | 11 | 0.0 | 0.0 | 0.00 | 0.00 | 0.00 | 100 | |
| 20260507075117 | 20 | 11 | 0.0 | 4.8 | 0.00 | 0.00 | 0.00 | 100 | |
| 20260507074617 | 20 | 32 | 0.0 | 4.8 | 0.00 | 0.00 | 0.00 | 100 | |
| 20260507074117 | 20 | 40 | 1.6 | 4.8 | 0.00 | 0.00 | 0.00 | 100 | |
| 20260507073616 | 20 | 9 | 0.0 | 6.4 | 0.00 | 0.00 | 0.00 | 100 | |
| 20260507073116 | 20 | 15 | 1.6 | 9.7 | 0.00 | 0.00 | 0.00 | 100 | |
| 20260507072616 | 21 | 21 | 0.0 | 4.8 | 0.00 | 0.00 | 0.00 | 100 | |
| 20260507072115 | 21 | 29 | 0.0 | 4.8 | 0.00 | 0.00 | 0.00 | 100 | |
| 20260507071615 | 21 | 14 | 0.0 | 1.6 | 0.00 | 0.00 | 0.00 | 100 | |
| 20260507071115 | 20 | 1 | 0.0 | 4.8 | 0.00 | 0.00 | 0.00 | 100 | |
| 20260507070615 | 20 | 18 | 3.2 | 4.8 | 0.00 | 0.00 | 0.00 | 100 | |
| 20260507070114 | 20 | 358 | 0.0 | 4.8 | 0.00 | 0.00 | 0.00 | 100 | |
| 20260507065614 | 20 | 25 | 0.0 | 4.8 | 0.00 | 0.00 | 0.00 | 100 | |
| 20260507065114 | 19 | 54 | 3.2 | 6.4 | 0.00 | 0.00 | 0.00 | 100 | |
| 20260507064613 | 20 | 5 | 3.2 | 6.4 | 0.00 | 0.00 | 0.00 | 100 | |
| 20260507064113 | 20 | 1 | 0.0 | 1.6 | 0.00 | 0.00 | 0.00 | 100 | |
| 20260507063613 | 18 | 16 | 0.0 | 8.0 | 0.00 | 0.00 | 0.00 | 100 | |
| 20260507063113 | 20 | 16 | 0.0 | 0.0 | 0.00 | 0.00 | 0.00 | 100 | |
| 20260507062612 | 19 | 16 | 0.0 | 1.6 | 0.00 | 0.00 | 0.00 | 100 | |
| 20260507062112 | 19 | 37 | 0.0 | 0.0 | 0.00 | 0.00 | 0.00 | 100 | |
| 20260507061612 | 20 | 28 | 0.0 | 0.0 | 0.00 | 0.00 | 0.00 | 100 | |
| 20260507061111 | 20 | 28 | 0.0 | 1.6 | 0.00 | 0.00 | 0.00 | 100 | |
| 20260507060611 | 20 | 59 | 0.0 | 0.0 | 0.00 | 0.00 | 0.00 | 100 | |
| 20260507060111 | 20 | 59 | 0.0 | 0.0 | 0.00 | 0.00 | 0.00 | 100 | |
| 20260507055610 | 20 | 59 | 0.0 | 0.0 | 0.00 | 0.00 | 0.00 | 100 | |
| 20260507055110 | 20 | 59 | 0.0 | 0.0 | 0.00 | 0.00 | 0.00 | 100 | |
| 20260507054610 | 20 | 59 | 0.0 | 0.0 | 0.00 | 0.00 | 0.00 | 100 | |
| 20260507054110 | 19 | 59 | 0.0 | 0.0 | 0.00 | 0.00 | 0.00 | 100 | |
| 20260507053609 | 20 | 59 | 0.0 | 0.0 | 0.00 | 0.00 | 0.00 | 100 | |
| 20260507053109 | 18 | 59 | 0.0 | 0.0 | 0.00 | 0.00 | 0.00 | 100 | |
| 20260507052609 | 19 | 59 | 0.0 | 3.2 | 0.00 | 0.00 | 0.00 | 100 | |
| 20260507052108 | 20 | 45 | 0.0 | 0.0 | 0.00 | 0.00 | 0.00 | 100 | |
| 20260507051608 | 19 | 45 | 0.0 | 0.0 | 0.00 | 0.00 | 0.00 | 100 | |
| 20260507051108 | 18 | 45 | 0.0 | 0.0 | 0.00 | 0.00 | 0.00 | 100 | |
| 20260507050608 | 18 | 45 | 0.0 | 0.0 | 0.00 | 0.00 | 0.00 | 100 | |
| 20260507050107 | 18 | 95 | 0.0 | 1.6 | 0.00 | 0.00 | 0.00 | 100 | |
| 20260507045607 | 18 | 32 | 0.0 | 0.0 | 0.00 | 0.00 | 0.00 | 100 | |
| 20260507045107 | 19 | 32 | 0.0 | 0.0 | 0.00 | 0.00 | 0.00 | 100 | |
| 20260507044606 | 18 | 32 | 0.0 | 0.0 | 0.00 | 0.00 | 0.00 | 100 | |
| 20260507044106 | 19 | 32 | 0.0 | 0.0 | 0.00 | 0.00 | 0.00 | 100 | |
| 20260507043606 | 18 | 32 | 0.0 | 3.2 | 0.00 | 0.00 | 0.00 | 100 | |
| 20260507043106 | 18 | 8 | 1.6 | 1.6 | 0.00 | 0.00 | 0.00 | 100 | |
| 20260507042605 | 18 | 45 | 0.0 | 0.0 | 0.00 | 0.00 | 0.00 | 100 | |
| 20260507042105 | 18 | 45 | 0.0 | 0.0 | 0.00 | 0.00 | 0.00 | 100 | |
| 20260507041605 | 18 | 45 | 0.0 | 0.0 | 0.00 | 0.00 | 0.00 | 100 | |
| 20260507041104 | 18 | 45 | 0.0 | 0.0 | 0.00 | 0.00 | 0.00 | 100 | |
| 20260507040604 | 18 | 45 | 0.0 | 0.0 | 0.00 | 0.00 | 0.00 | 100 | |
| 20260507040104 | 17 | 45 | 0.0 | 1.6 | 0.00 | 0.00 | 0.00 | 100 | |
| 20260507035603 | 17 | 80 | 0.0 | 0.0 | 0.00 | 0.00 | 0.00 | 100 | |
| 20260507035103 | 17 | 80 | 0.0 | 3.2 | 0.00 | 0.00 | 0.00 | 100 | |
| 20260507034603 | 16 | 146 | 1.6 | 8.0 | 0.00 | 0.00 | 0.00 | 100 | |
| 20260507034103 | 16 | 132 | 6.4 | 6.4 | 0.00 | 0.00 | 0.00 | 100 | |
| 20260507033602 | 17 | 153 | 0.0 | 0.0 | 0.00 | 0.00 | 0.00 | 100 | |
| 20260507033102 | 18 | 153 | 0.0 | 0.0 | 0.00 | 0.00 | 0.00 | 100 | |
| 20260507032602 | 16 | 153 | 0.0 | 6.4 | 0.00 | 0.00 | 0.00 | 100 | |
| 20260507032101 | 17 | 158 | 0.0 | 0.0 | 0.00 | 0.00 | 0.00 | 100 | |
| 20260507031601 | 17 | 158 | 0.0 | 4.8 | 0.00 | 0.00 | 0.00 | 100 | |
| 20260507031101 | 16 | 163 | 3.2 | 6.4 | 0.00 | 0.00 | 0.00 | 100 | |
| 20260507030601 | 17 | 187 | 3.2 | 3.2 | 0.00 | 0.00 | 0.00 | 100 | |
| 20260507030100 | 18 | 222 | 1.6 | 3.2 | 0.00 | 0.00 | 0.00 | 100 | |
| 20260507025600 | 18 | 203 | 3.2 | 3.2 | 0.00 | 0.00 | 0.00 | 100 | |
| 20260507025100 | 18 | 123 | 0.0 | 4.8 | 0.00 | 0.00 | 0.00 | 100 | |
| 20260507024559 | 18 | 189 | 3.2 | 4.8 | 0.00 | 0.00 | 0.00 | 100 | |
| 20260507024059 | 17 | 172 | 3.2 | 4.8 | 0.00 | 0.00 | 0.00 | 100 | |
| 20260507023559 | 16 | 147 | 3.2 | 8.0 | 0.00 | 0.00 | 0.00 | 100 | |
| 20260507023058 | 16 | 144 | 3.2 | 6.4 | 0.00 | 0.00 | 0.00 | 100 | |
| 20260507022558 | 19 | 355 | 0.0 | 0.0 | 0.00 | 0.00 | 0.00 | 100 | |
| 20260507022058 | 18 | 355 | 0.0 | 4.8 | 0.00 | 0.00 | 0.00 | 100 | |
| 20260507021558 | 18 | 357 | 3.2 | 9.7 | 0.00 | 0.00 | 0.00 | 100 | |
| 20260507021057 | 19 | 270 | 0.0 | 8.0 | 0.00 | 0.00 | 0.00 | 100 | |
| 20260507020557 | 19 | 26 | 3.2 | 6.4 | 0.00 | 0.00 | 0.00 | 100 | |
| 20260507020057 | 19 | 16 | 4.8 | 12.9 | 0.00 | 0.00 | 0.00 | 100 | |
| 20260507015556 | 19 | 348 | 4.8 | 14.5 | 0.00 | 0.00 | 0.00 | 100 | |
| 20260507015056 | 18 | 330 | 4.8 | 20.9 | 0.00 | 0.00 | 0.00 | 100 | |
| 20260507014556 | 18 | 358 | 4.8 | 12.9 | 0.00 | 0.00 | 0.00 | 100 | |
| 20260507014056 | 17 | 333 | 3.2 | 12.9 | 0.00 | 0.00 | 0.00 | 100 | |
| 20260507013556 | 18 | 25 | 3.2 | 12.9 | 0.00 | 0.00 | 0.00 | 100 | |
| 20260507013055 | 17 | 39 | 3.2 | 14.5 | 0.00 | 0.00 | 0.00 | 100 | |
| 20260507012555 | 17 | 358 | 6.4 | 16.1 | 0.00 | 0.00 | 0.00 | 100 | |
| 20260507012054 | 18 | 1 | 11.3 | 22.5 | 0.00 | 0.00 | 0.00 | 100 | |
| 20260507011554 | 17 | 327 | 4.8 | 22.5 | 0.00 | 0.00 | 0.00 | 100 | |
| 20260507011054 | 17 | 9 | 9.7 | 19.3 | 0.00 | 0.00 | 0.00 | 100 | |
| 20260507010554 | 18 | 1 | 12.9 | 22.5 | 0.00 | 0.00 | 0.00 | 100 | |
| 20260507010053 | 18 | 0 | 8.0 | 29.0 | 0.00 | 0.00 | 0.00 | 100 | |
| 20260507005553 | 18 | 19 | 8.0 | 25.7 | 0.00 | 0.00 | 0.00 | 100 | |
| 20260507005053 | 17 | 315 | 4.8 | 33.8 | 0.00 | 0.00 | 0.00 | 100 | |
| 20260507004552 | 17 | 11 | 19.3 | 29.0 | 0.00 | 0.00 | 0.00 | 100 | |
| 20260507004052 | 17 | 12 | 14.5 | 33.8 | 0.00 | 0.00 | 0.00 | 100 | |
| 20260507003552 | 17 | 28 | 6.4 | 27.4 | 0.00 | 0.00 | 0.00 | 100 | |
| 20260507003051 | 18 | 279 | 3.2 | 27.4 | 0.00 | 0.00 | 0.00 | 100 | |
| 20260507002551 | 18 | 2 | 20.9 | 20.9 | 0.00 | 0.00 | 0.00 | 100 | |
| 20260507002051 | 18 | 282 | 1.6 | 16.1 | 0.00 | 0.00 | 0.00 | 100 | |
| 20260507001551 | 18 | 28 | 11.3 | 17.7 | 0.00 | 0.00 | 0.00 | 100 | |
| 20260507001050 | 18 | 11 | 3.2 | 14.5 | 0.00 | 0.00 | 0.00 | 100 | |
| 20260507000550 | 18 | 33 | 4.8 | 14.5 | 0.00 | 0.00 | 0.00 | 100 | |
| 20260507000050 | 18 | 42 | 3.2 | 9.7 | 0.00 | 0.00 | 0.00 | 100 | |
| 20260506235549 | 17 | 29 | 1.6 | 12.9 | 0.00 | 0.00 | 0.00 | 100 | |
| 20260506235049 | 19 | 309 | 4.8 | 4.8 | 0.00 | 0.00 | 0.00 | 100 | |
| 20260506234549 | 18 | 25 | 0.0 | 4.8 | 0.00 | 0.00 | 0.00 | 100 | |
| 20260506234049 | 18 | 333 | 0.0 | 8.0 | 0.00 | 0.00 | 0.00 | 100 | |
| 20260506233548 | 18 | 42 | 6.4 | 6.4 | 0.00 | 0.00 | 0.00 | 100 | |
| 20260506233048 | 18 | 133 | 0.0 | 4.8 | 0.00 | 0.00 | 0.00 | 100 | |
| 20260506232548 | 19 | 39 | 0.0 | 6.4 | 0.00 | 0.00 | 0.00 | 100 | |
| 20260506232047 | 18 | 19 | 6.4 | 6.4 | 0.00 | 0.00 | 0.00 | 100 | |
| 20260506231547 | 18 | 312 | 0.0 | 0.0 | 0.00 | 0.00 | 0.00 | 100 | |
| 20260506231047 | 18 | 312 | 0.0 | 3.2 | 0.00 | 0.00 | 0.00 | 100 | |
| 20260506230547 | 20 | 16 | 0.0 | 0.0 | 0.00 | 0.00 | 0.00 | 100 | |
| 20260506230046 | 18 | 16 | 0.0 | 0.0 | 0.00 | 0.00 | 0.00 | 100 | |
| 20260506225546 | 18 | 16 | 0.0 | 0.0 | 0.00 | 0.00 | 0.00 | 100 | |
| 20260506225046 | 18 | 16 | 0.0 | 0.0 | 0.00 | 0.00 | 0.00 | 100 | |
| 20260506224545 | 18 | 16 | 0.0 | 6.4 | 0.00 | 0.00 | 0.00 | 100 | |
| 20260506224045 | 18 | 63 | 1.6 | 3.2 | 0.00 | 0.00 | 0.00 | 100 | |
| 20260506223545 | 18 | 268 | 0.0 | 4.8 | 0.00 | 0.00 | 0.00 | 100 | |
| 20260506223044 | 18 | 305 | 3.2 | 6.4 | 0.00 | 0.00 | 0.00 | 100 | |
| 20260506222544 | 18 | 213 | 0.0 | 4.8 | 0.00 | 0.00 | 0.00 | 100 | |
| 20260506222044 | 18 | 293 | 0.0 | 8.0 | 0.00 | 0.00 | 0.00 | 100 | |
| 20260506221544 | 18 | 217 | 3.2 | 9.7 | 0.00 | 0.00 | 0.00 | 100 | |
| 20260506221043 | 18 | 307 | 3.2 | 8.0 | 0.00 | 0.00 | 0.00 | 100 | |
| 20260506220543 | 19 | 278 | 3.2 | 9.7 | 0.00 | 0.00 | 0.00 | 100 | |
| 20260506220043 | 19 | 291 | 6.4 | 8.0 | 0.00 | 0.00 | 0.00 | 100 | |
| 20260506215542 | 19 | 337 | 1.6 | 11.3 | 0.00 | 0.00 | 0.00 | 100 | |
| 20260506215042 | 20 | 267 | 6.4 | 9.7 | 0.00 | 0.00 | 0.00 | 100 | |
| 20260506214542 | 19 | 289 | 6.4 | 8.0 | 0.00 | 0.00 | 0.00 | 100 | |
| 20260506214042 | 20 | 262 | 1.6 | 6.4 | 0.00 | 0.00 | 0.00 | 100 | |
| 20260506213541 | 20 | 288 | 4.8 | 8.0 | 0.00 | 0.00 | 0.00 | 100 | |
| 20260506213041 | 20 | 40 | 0.0 | 9.7 | 0.00 | 0.00 | 0.00 | 100 | |
| 20260506212541 | 20 | 261 | 3.2 | 12.9 | 0.00 | 0.00 | 0.00 | 100 | |
| 20260506212040 | 19 | 220 | 9.7 | 16.1 | 0.00 | 0.00 | 0.00 | 100 | |
| 20260506211540 | 19 | 271 | 6.4 | 16.1 | 0.00 | 0.00 | 0.00 | 100 | |
| 20260506211040 | 20 | 293 | 9.7 | 16.1 | 0.00 | 0.00 | 0.00 | 100 | |
| 20260506210540 | 20 | 261 | 6.4 | 16.1 | 0.00 | 0.00 | 0.00 | 100 | |
| 20260506210039 | 20 | 253 | 4.8 | 20.9 | 0.00 | 0.00 | 0.00 | 100 | |
| 20260506205539 | 20 | 309 | 9.7 | 20.9 | 0.00 | 0.00 | 0.00 | 100 | |
| 20260506205039 | 20 | 286 | 14.5 | 19.3 | 0.00 | 0.00 | 0.00 | 100 | |
| 20260506204538 | 20 | 260 | 16.1 | 24.1 | 0.00 | 0.00 | 0.00 | 100 | |
| 20260506204038 | 20 | 307 | 12.9 | 25.7 | 0.00 | 0.00 | 0.00 | 100 | |
| 20260506203538 | 20 | 319 | 9.7 | 29.0 | 0.00 | 0.00 | 0.00 | 100 | |
| 20260506203037 | 20 | 313 | 12.9 | 29.0 | 0.00 | 0.00 | 0.00 | 100 | |
| 20260506202537 | 20 | 289 | 22.5 | 30.6 | 0.00 | 0.00 | 0.00 | 100 | |
| 20260506202037 | 20 | 279 | 17.7 | 29.0 | 0.00 | 0.00 | 0.00 | 100 | |
| 20260506201537 | 20 | 258 | 24.1 | 24.1 | 0.00 | 0.00 | 0.00 | 100 | |
| 20260506201036 | 20 | 262 | 11.3 | 24.1 | 0.00 | 0.00 | 0.00 | 100 | |
| 20260506200536 | 20 | 303 | 8.0 | 20.9 | 0.00 | 0.00 | 0.00 | 100 | |
| 20260506200036 | 20 | 271 | 11.3 | 24.1 | 0.00 | 0.00 | 0.00 | 100 | |
| 20260506195535 | 20 | 284 | 11.3 | 19.3 | 0.00 | 0.00 | 0.00 | 100 | |
| 20260506195035 | 20 | 295 | 12.9 | 20.9 | 0.00 | 0.00 | 0.00 | 100 | |
| 20260506194535 | 20 | 285 | 9.7 | 16.1 | 0.00 | 0.00 | 0.00 | 100 | |
| 20260506194035 | 20 | 296 | 11.3 | 16.1 | 0.00 | 0.00 | 0.00 | 100 |